Location: Chimay
(50.0486°N, 4.3171°E)
Time: 16:36:45
(UTC+00:00)

CENTAUR R/B - Pass Details

Date: 08 August 2020
Orbit: 754 x 1434 km, 63.5° (Epoch: 17 September)

Event Time Altitude Azimuth Distance (km) Brightness Sun altitude
Exits shadow 21:04:49 22° 144° (SE) 1,921 3.4 -15.0°
Maximum altitude 21:07:05 27° 111° (ESE) 1,761 3.4 -15.2°
Drops below altitude 10° 21:12:39 10° 57° (ENE) 2,930 4.9 -15.8°
Sets 21:15:55 0° 46° (NE) 4,014 5.8 -16.1°
